Location: Newark
(43.6583°N, 1.6617°E)
Time: 18:30:22
(UTC+00:00)

Tiros 1 - Pass Details

Date: 02 September 2019
Orbit: 630 x 664 km, 48.4° (Epoch: 17 October)

Event Time Altitude Azimuth Distance (km) Brightness Sun altitude
Rises 19:56:25 0° 238° (WSW) 2,915 11.0 -15.9°
Reaches altitude 10° 19:58:44 10° 237° (WSW) 2,006 10.1 -16.3°
Maximum altitude 20:03:20 77° 152° (SSE) 650 7.0 -17.0°
Enters shadow 20:06:26 21° 69° (ENE) 1,436 8.6 -17.5°
Drops below altitude 10° 20:07:57 10° 67° (ENE) 2,009 - -17.7°
Sets 20:10:16 0° 66° (ENE) 2,919 - -18.1°
